Flag for U.S.A. Weather past 2 weeks in Asheville, North Carolina, U.S.A.

Now
85 °F

Scattered clouds.


Feels Like: 84 °F
Forecast: 56 / 85 °F
Wind: 7 mph from Northwest

Location: Asheville Regional Airport

Current Time: Aug 27, 2014 at 5:29:19 PM

Latest Report: Aug 27, 2014 at 4:54 PM


Visibility: 10 mi

Pressure: 30.03 "Hg

Humidity: 39%

Dew point: 57 °F

Location of AshevilleLocation

Historic Weather in Asheville — Graph

°F

Asheville temperature yesterday

Maximum temperature yesterday: 83 °F (at 2:54 PM)
Minimum temperature yesterday: 53 °F (at 6:56 AM)
Average temperature yesterday: 67 °F

Past Weeks' High & Low Weather Summary

 TemperatureHumidityPressure
High89 °F (Aug 22, 2:54 PM)100% (Aug 26, 7:54 AM)30.21 "Hg (Aug 26, 7:54 AM)
Low53 °F (Aug 26, 6:56 AM)37% (Aug 27, 3:54 PM)29.79 "Hg (Aug 12, 5:54 PM)
Average72 °F74%30.02 "Hg
* Reported Aug 12 3:54 PM — Aug 27 3:54 PM, Asheville, Weather by CustomWeather, © 2014

Note: Actual official high and low records may vary slightly from our data, if they occured in-between our weather recording intervals... More about our weather records

Advertising

Asheville weather history for previous 24 hours

 ConditionsComfort  
Time TempWeatherWind HumidityBarometerVisibility
3:54 PM
Aug 27
85 °FSunny.No wind37%30.03 "Hg10 mi
2:54 PM83 °FSunny.5 mph40%30.05 "Hg10 mi
1:54 PM82 °FSunny.8 mph43%30.07 "Hg10 mi
12:54 PM79 °FSunny.5 mph48%30.09 "Hg10 mi
11:54 AM76 °FSunny.7 mph58%30.11 "Hg10 mi
10:54 AM71 °FSunny.5 mph68%30.12 "Hg10 mi
9:54 AM62 °FPassing clouds.3 mph93%30.14 "Hg9 mi
8:54 AM59 °FFog.No wind96%30.15 "Hg0 mi
8:03 AM57 °FFog.No wind96%30.19 "Hg1 mi
8:00 AM57 °FFog.No wind96%30.19 "Hg2 mi
6:54 AM55 °FFog.No wind96%30.11 "Hg1 mi
5:54 AM57 °FPassing clouds.No wind93%30.08 "Hg9 mi
4:59 AM57 °FFog.No wind96%30.15 "Hg2 mi
3:54 AM59 °FClear.No wind93%30.08 "Hg10 mi
2:54 AM61 °FClear.No wind90%30.09 "Hg10 mi
1:54 AM62 °FClear.No wind90%30.10 "Hg10 mi
12:54 AM64 °FPartly cloudy.No wind87%30.11 "Hg10 mi
11:54 PM
Aug 26
66 °FPassing clouds.No wind81%30.12 "Hg10 mi
10:54 PM68 °FClear.No wind73%30.14 "Hg10 mi
9:54 PM69 °FPassing clouds.3 mph70%30.13 "Hg10 mi
8:54 PM73 °FPartly sunny.5 mph62%30.11 "Hg10 mi
7:54 PM74 °FScattered clouds.3 mph67%30.10 "Hg10 mi
6:54 PM77 °FScattered clouds.6 mph62%30.09 "Hg10 mi
5:54 PM79 °FScattered clouds.3 mph60%30.08 "Hg10 mi
Weather by CustomWeather, © 2014

See weather overviewHow to use our weather pages